sat.trackr.live / text

‹ back to catalog

KUIPER-00468

NORAD 68873 · 2026-095K

PAYLOAD ACTIVE UNKNOWN

§ Identity

Operator
Country
US
Launch date
2026-04-28
Launch site
AFETR
Launch vehicle
Mass (kg)
RCS (m²)

External: N2YO · Heavens-Above · Gunter

§ Orbital elements

Epoch: 2026-05-24T22:35:59.341056Z

Period
93.64 min
Inclination
51.8827°
Eccentricity
0.0004908
Mean motion
15.37849719 rev/d
Perigee alt
449.1 km
Apogee alt
455.8 km
Semi-major
6,830.6 km
B*
6.8931e-4
RAAN
354.7448°
Arg perigee
193.6263°
Mean anomaly
166.4593°
Rev number
415

§ Raw data

KUIPER-004681 68873U 26095K   26144.94165904  .00025748  00000+0  68931-3 0  99942 68873  51.8827 354.7448 0004908 193.6263 166.4593 15.37849719  4159

JSON: /api/v1/satellites/68873 · /tle

For live sub-satellite position, see the globe view (requires WebGL).

§ Visibility from observer

Set your observer location to see the next 7 days of passes ≥ 10°. The values pass through the URL so the page stays shareable.

No JS? Fill the form by hand. The geolocation button needs JavaScript.